Temperature
18 19 19 19 19 19 18 17 17 17 17 18 17 17 18 18 18 18 18 18 18 18 18 17 17 17 17 17 17 17 17 17 16 16 16 16 15 15 15 15 15 15 15 15
18 19 19 19 19 19 19 18 18 18 17 18 18 19 18 18 18 18 18 18 18 18 18 17 17 17 17 17 17 17 17 17 16 16 16 16 15 15 15 15 15 15 15 14
16 17 18 17 18 19 18 18 18 17 17 17 17 17 18 18 18 18 18 18 18 18 18 17 17 17 17 17 17 16 16 16 16 16 16 15 15 15 15 15 15 15 14 14
15 17 17 17 18 19 18 18 18 18 17 17 18 18 19 18 18 18 18 17 17 17 17 17 17 17 17 17 16 16 16 16 16 16 16 15 15 15 15 15 15 14 14 14
14 15 16 18 18 18 18 17 17 17 17 18 18 18 17 18 18 18 18 18 17 17 17 17 17 17 16 16 16 16 16 16 16 16 15 15 15 15 15 14 14 14 14 14
14 15 15 17 18 19 18 17 17 17 17 17 17 15 15 18 18 18 18 18 17 17 17 17 17 16 16 16 16 16 16 16 15 15 15 15 15 15 14 14 14 14 14 14
13 14 15 16 18 18 17 16 17 18 17 17 17 17 18 18 18 18 18 17 17 17 17 17 16 16 16 16 15 15 15 15 15 15 15 15 15 14 14 14 14 14 14 13
13 13 14 17 17 16 16 18 18 18 18 18 18 18 18 18 18 17 17 17 17 16 16 16 16 16 15 15 15 15 15 15 15 15 15 14 14 14 14 14 13 13 13 13
14 14 15 17 17 18 18 18 18 18 18 18 17 17 17 17 17 17 17 16 16 16 16 16 15 15 15 15 15 14 14 14 14 14 14 14 14 14 13 13 13 13 13 13
13 14 15 16 17 17 18 17 17 17 17 17 17 17 16 17 16 16 16 16 16 16 15 15 15 15 15 15 14 14 14 14 14 14 14 14 13 13 13 13 13 13 13 13
12 13 14 15 16 16 17 17 17 17 16 16 17 16 16 16 16 16 16 15 15 15 15 15 14 14 14 14 14 14 14 14 14 13 13 13 13 13 13 13 13 13 12 12
12 13 13 14 15 16 16 16 16 16 15 16 16 16 16 16 15 15 15 15 15 15 14 14 14 14 14 13 13 14 13 13 13 13 13 13 13 12 12 12 12 12 12 12
14 14 14 14 14 15 15 15 15 15 15 15 15 15 15 15 15 15 15 14 14 14 14 14 14 13 13 13 13 13 13 13 13 13 13 12 12 12 12 12 12 12 12 11
14 14 13 14 14 14 14 14 15 15 15 15 14 14 14 14 14 14 14 14 14 13 13 13 13 13 13 13 13 13 12 12 12 12 12 12 12 12 12 12 11 11 11 11
13 13 13 13 13 13 13 14 14 13 13 13 13 13 13 13 13 13 13 13 13 13 13 13 12 12 12 12 12 12 12 12 12 12 12 11 11 11 11 11 11 11 11 11
12 13 12 12 12 12 12 13 13 13 13 13 13 13 13 13 12 12 12 12 12 12 12 12 12 12 12 11 11 11 11 11 11 11 11 11 11 11 11 11 10 10 10 10
12 11 11 11 11 11 12 12 12 12 12 12 12 12 12 12 12 11 11 12 12 12 11 11 11 11 11 11 11 11 11 11 11 11 11 11 10 10 10 10 10 10 10 10
12 12 11 11 11 11 11 11 11 12 11 11 11 11 11 11 11 11 11 11 11 11 11 11 10 10 10 10 10 10 10 10 10 10 10 10 10 10 10 10 10 10 9 9
11 11 11 11 11 11 11 11 11 11 11 11 10 10 10 10 10 10 10 10 10 10 10 10 10 10 10 10 10 10 10 10 10 10 10 9 9 9 9 9 9 9 9 9
11 11 11 10 11 10 10 10 10 10 10 10 10 10 10 10 10 10 9 9 9 9 9 9 9 9 9 9 9 9 9 9 9 9 9 9 9 8 8 8 8 8 8 8
10 10 10 10 10 10 10 10 10 10 10 10 9 9 9 9 9 9 9 9 9 8 8 8 8 8 8 8 8 8 8 8 8 8 8 8 8 8 8 8 8 8 8 8
10 10 10 10 10 9 9 9 9 9 9 9 9 9 9 9 8 8 8 8 8 8 8 8 8 8 8 8 7 8 8 8 8 8 8 8 7 7 7 7 7 7 7 7
9 9 9 9 9 9 9 9 9 9 9 9 8 8 8 8 8 8 8 8 7 7 7 7 7 7 7 7 7 7 7 7 7 7 7 7 7 7 7 7 7 7 7 6
9 9 9 9 9 8 8 8 8 8 8 8 8 8 8 8 7 7 7 7 7 7 7 7 6 6 6 6 7 7 7 7 7 7 7 7 7 7 7 6 6 6 6 6
8 8 8 8 8 8 8 8 8 8 7 7 7 7 7 7 7 7 6 6 6 6 6 6 6 6 6 6 6 6 6 6 6 6 6 6 6 6 6 6 6 6 6 6
8 8 8 8 8 7 7 7 7 7 7 7 7 6 6 6 6 6 6 6 6 6 6 5 5 5 5 5 5 5 5 5 5 5 5 5 5 5 6 6 6 6 5 5
7 7 7 7 7 7 7 7 7 7 7 6 6 6 6 6 6 6 5 5 5 5 5 5 5 5 5 5 5 5 5 5 5 5 5 5 5 5 5 5 5 5 5 5
Wind_Speed
5 5 4 4 5 5 5 7 7 6 6 6 6 6 5 5 4 5 5 5 6 6 5 4 3 3 4 4 4 5 5 6 6 4 4 4 3 3 3 4 4 4 4 3
2 3 2 3 6 6 6 6 6 5 5 6 4 4 4 5 6 6 6 6 6 6 5 5 4 4 4 4 4 5 5 6 5 5 4 4 4 4 4 3 3 3 4 4
3 4 2 4 6 6 5 4 6 6 7 3 3 6 7 7 6 6 6 5 5 5 6 6 5 5 5 5 4 5 5 5 5 5 5 5 5 5 5 4 4 3 3 4
1 1 4 7 4 5 5 2 3 4 3 5 7 7 6 5 6 6 5 5 4 4 3 3 3 3 3 3 4 5 5 5 4 5 5 4 4 5 4 4 4 3 3 3
3 3 5 5 3 3 4 3 3 4 4 3 3 4 1 2 4 6 6 5 5 5 4 3 3 3 4 3 4 5 4 5 5 6 6 6 5 5 4 3 3 3 3 4
4 4 6 7 5 2 4 3 4 4 5 4 6 4 4 4 3 3 4 4 4 4 3 3 3 3 4 3 4 5 6 5 5 5 6 7 7 5 3 3 3 3 3 3
5 5 6 7 5 2 4 6 4 4 5 6 6 6 5 4 4 4 3 3 3 4 3 3 3 4 4 3 4 5 5 4 4 4 5 6 6 4 4 4 4 3 3 2
5 5 7 5 2 5 6 4 3 4 5 5 3 3 3 4 4 4 3 3 3 3 2 2 3 4 4 3 4 3 4 4 4 3 4 5 5 4 4 5 4 3 3 2
7 7 4 2 3 3 3 2 2 3 3 4 4 3 2 3 3 3 4 4 3 4 3 1 2 4 5 4 2 3 4 4 4 3 3 4 6 5 4 4 4 4 3 3
2 3 2 1 1 2 2 2 2 2 3 4 4 4 3 3 3 3 3 3 3 4 3 1 1 2 3 3 3 4 4 4 4 4 3 3 4 4 5 5 5 4 4 4
2 3 2 3 2 2 2 3 3 3 2 3 4 4 3 3 4 4 3 3 4 4 4 3 2 1 1 3 4 4 3 3 4 4 4 3 3 3 4 4 6 6 5 5
5 5 3 4 3 1 1 1 2 2 2 1 3 3 2 3 3 3 3 3 3 3 3 3 2 2 1 2 4 4 3 3 3 3 3 4 3 2 1 2 3 4 5 5
5 4 4 4 2 1 1 2 2 2 2 1 1 2 2 2 3 3 3 3 3 4 3 3 3 3 2 2 3 4 4 4 3 4 4 4 4 4 2 1 2 1 2 4
3 1 2 2 2 2 1 1 1 1 1 1 1 1 1 1 1 2 3 4 3 3 3 3 3 3 3 3 3 3 3 4 4 4 4 4 4 4 4 3 1 1 1 1
3 3 4 3 1 2 1 1 3 2 2 2 1 1 1 0 1 2 2 2 2 2 3 3 3 3 3 3 3 3 3 2 3 4 4 4 4 3 3 3 3 2 0 1
3 1 2 2 2 2 0 2 2 1 0 0 0 0 1 1 1 2 2 2 3 3 3 3 4 4 3 3 3 3 3 4 4 4 3 3 3 3 3 3 3 2 2 2
4 3 3 3 3 2 2 3 3 3 2 1 1 1 1 1 1 2 2 2 3 3 3 3 3 3 3 3 4 3 2 3 4 3 4 4 4 4 4 4 3 3 3 3
6 6 6 6 5 4 3 3 3 3 3 2 1 1 1 1 2 3 3 1 1 1 2 3 3 2 2 2 3 2 3 3 3 4 4 3 3 4 4 4 4 4 2 2
4 5 5 5 5 5 4 3 3 3 3 2 2 2 3 3 3 3 2 2 2 2 3 3 2 1 1 2 2 2 3 3 3 3 3 4 4 3 4 4 4 4 3 3
4 4 4 4 4 4 4 4 3 3 3 3 3 3 3 3 2 2 2 2 3 3 3 3 2 2 2 2 2 2 3 4 4 4 3 4 4 4 5 5 4 4 4 4
3 3 4 4 4 3 4 4 4 4 3 3 4 4 4 3 2 2 2 2 3 2 2 2 2 3 3 3 3 3 3 4 4 4 4 4 4 4 5 5 5 4 4 4
3 3 3 4 3 3 3 3 4 4 3 2 2 2 2 2 2 2 3 3 3 2 1 2 2 3 3 3 3 3 3 4 4 4 4 4 5 5 5 5 5 5 5 5
3 3 3 4 4 4 2 2 3 3 3 3 3 3 3 3 2 2 3 3 2 2 2 2 3 3 3 3 3 3 4 4 4 4 4 5 5 5 5 5 5 5 5 5
3 3 4 3 3 3 3 3 2 2 2 2 3 3 3 2 2 3 3 3 3 3 2 3 3 4 3 2 2 3 4 4 4 4 4 4 5 5 5 5 5 5 5 6
3 3 3 3 4 4 4 3 2 1 1 1 1 2 2 2 2 2 2 3 3 3 2 3 4 4 3 2 3 3 3 3 3 3 4 4 5 5 5 5 5 5 5 6
3 3 3 5 4 3 3 3 2 2 2 1 2 2 2 1 1 1 1 2 3 3 3 3 3 3 2 3 3 4 3 3 3 3 3 4 4 5 5 6 6 5 5 6
2 2 2 1 2 3 3 3 3 3 3 3 2 2 2 1 1 1 2 2 2 2 2 3 3 3 3 3 3 3 3 3 3 3 3 4 4 4 4 5 5 5 5 5
Wind_Direction
214 223 205 217 230 209 193 189 190 214 205 223 216 202 191 176 165 154 160 167 173 178 183 183 184 190 187 189 184 172 167 175 187 190 180 172 165 164 158 151 151 152 140 137
259 245 221 249 247 229 219 204 197 197 230 235 210 175 163 166 165 169 180 186 186 185 185 191 195 194 189 188 188 171 168 182 185 180 175 174 171 159 148 148 144 138 143 143
242 276 353 269 234 211 203 203 183 204 227 204 163 177 178 179 177 180 187 187 180 186 195 198 202 192 192 192 180 170 175 179 177 176 176 179 170 157 160 163 150 143 157 152
183 34 230 244 243 185 174 207 186 181 192 184 191 188 175 166 173 182 184 178 181 186 185 189 188 187 185 170 166 169 175 181 178 174 177 169 160 165 171 161 158 163 165 161
154 197 262 279 266 179 174 237 228 185 184 179 145 106 51 201 171 179 182 180 185 184 177 172 171 170 155 152 159 162 174 184 187 180 176 171 177 180 174 161 165 168 163 163
154 178 226 245 261 226 131 243 259 178 166 160 121 133 237 229 190 182 179 170 165 165 147 155 180 157 145 157 168 187 196 195 188 177 176 180 183 178 166 159 169 166 163 171
176 206 251 257 262 117 157 231 242 185 165 157 168 193 206 194 180 172 170 165 150 145 156 183 179 155 153 168 200 211 197 181 174 169 171 174 172 164 154 152 147 154 159 162
168 190 243 267 135 164 212 218 180 172 167 161 168 163 157 161 165 155 148 144 144 148 169 176 164 158 166 199 216 194 172 169 175 173 170 162 159 161 157 155 154 163 162 178
188 207 234 221 182 202 155 139 174 174 173 151 139 136 146 157 162 163 160 159 157 156 159 157 168 169 184 215 186 151 156 169 175 166 161 159 162 164 159 161 168 180 183 196
206 257 263 311 36 52 87 111 115 124 143 139 146 154 156 158 161 166 172 171 162 147 150 182 203 188 194 187 164 145 156 170 170 161 158 150 163 166 168 177 182 188 193 202
218 263 353 351 5 25 42 75 73 69 112 144 143 163 173 176 181 182 186 184 168 167 178 202 213 210 190 164 156 153 160 166 166 165 161 157 154 171 179 191 189 190 201 196
217 215 192 244 271 296 108 113 117 89 55 97 162 170 181 185 188 180 176 175 171 175 181 200 190 182 183 166 163 158 163 173 174 163 156 156 153 126 87 159 185 191 192 191
217 227 221 234 258 299 222 189 165 154 161 184 192 174 169 182 182 172 172 175 183 189 195 195 180 187 199 177 166 168 178 184 177 170 166 165 165 162 159 20 43 94 178 182
211 185 258 257 243 289 298 235 84 73 91 135 129 116 129 162 172 170 189 199 194 190 205 200 183 206 207 176 171 179 181 181 178 177 174 175 181 181 175 172 181 295 312 225
236 213 220 240 259 319 328 60 63 49 45 32 59 93 108 185 219 225 221 203 184 195 210 197 195 228 219 184 179 183 184 191 185 175 173 176 179 176 170 170 173 178 194 325
235 194 173 197 230 292 241 141 129 144 138 67 28 320 296 271 256 261 240 192 179 203 219 211 218 229 213 192 189 192 195 188 180 171 164 166 171 175 176 178 182 191 207 213
192 214 211 215 219 231 226 206 185 186 194 202 230 269 320 334 321 291 267 227 195 209 220 219 229 236 213 197 193 200 205 194 176 170 174 176 178 184 184 182 191 204 222 216
196 202 201 198 204 219 242 230 201 196 207 229 239 279 280 271 266 265 247 224 181 260 253 241 234 231 218 202 192 192 196 194 190 186 183 179 185 191 188 191 198 205 224 221
201 199 203 205 209 209 214 221 221 215 214 211 223 245 257 261 259 246 224 191 200 243 261 248 231 223 215 206 192 189 196 196 201 198 187 185 196 203 198 199 204 209 212 216
210 203 203 217 217 203 206 207 206 214 221 221 235 254 264 261 254 243 217 228 237 241 245 247 236 228 228 216 213 202 208 204 203 204 196 194 206 214 210 208 210 215 219 221
208 206 203 210 215 215 212 201 197 208 222 223 227 234 240 247 247 238 217 250 268 261 244 249 247 239 235 222 221 213 215 210 208 210 207 208 217 224 218 214 217 221 225 228
204 201 208 214 216 223 222 208 199 202 213 222 231 229 224 242 252 265 258 243 244 248 259 254 250 250 244 231 218 216 213 208 211 213 211 214 222 228 226 221 221 225 229 232
211 213 214 219 219 213 211 203 196 196 201 209 216 214 215 238 239 227 255 262 243 247 267 254 255 259 254 238 223 222 222 215 215 218 218 221 226 225 224 222 223 226 229 231
220 217 217 204 184 172 184 206 202 202 205 214 220 216 211 227 279 278 261 250 259 267 260 242 249 263 269 253 229 227 226 222 222 226 229 230 229 224 221 220 220 224 227 230
214 208 202 179 182 197 203 196 184 196 208 228 266 272 259 238 240 257 265 251 251 271 277 260 262 263 255 241 230 229 226 225 230 231 225 229 230 225 225 222 221 224 228 231
213 209 207 202 199 195 190 183 195 211 207 220 275 286 289 283 238 246 266 260 251 267 277 269 259 257 249 238 233 232 229 229 236 240 234 237 235 231 230 227 226 228 232 233
212 195 185 189 198 192 188 188 201 217 216 212 241 264 255 246 239 243 255 259 261 262 262 262 256 249 249 248 245 238 232 229 233 240 245 242 237 234 231 229 233 234 235 233
Height
1516 1513 1513 1514 1514 1514 1519 1523 1529 1526 1524 1519 1515 1515 1515 1515 1516 1517 1519 1520 1521 1523 1524 1525 1526 1527 1528 1530 1531 1532 1533 1534 1535 1536 1537 1538 1539 1540 1541 1542 1543 1544 1545 1545
1516 1511 1511 1513 1511 1511 1513 1514 1517 1518 1519 1511 1511 1512 1513 1514 1515 1516 1517 1518 1520 1521 1522 1523 1524 1525 1526 1527 1529 1530 1531 1531 1533 1534 1535 1536 1537 1538 1540 1541 1541 1542 1543 1544
1524 1515 1514 1519 1509 1508 1510 1508 1510 1516 1513 1509 1510 1510 1511 1512 1513 1514 1515 1517 1518 1519 1520 1521 1523 1523 1524 1525 1526 1527 1528 1529 1531 1532 1533 1534 1536 1537 1538 1539 1540 1540 1541 1542
1524 1521 1528 1514 1501 1501 1504 1506 1505 1505 1505 1506 1506 1507 1508 1510 1511 1512 1514 1515 1516 1517 1518 1520 1521 1522 1522 1523 1524 1525 1526 1527 1529 1530 1531 1532 1533 1534 1535 1537 1537 1539 1540 1541
1527 1527 1521 1508 1501 1500 1504 1507 1503 1503 1503 1504 1504 1507 1509 1509 1510 1511 1512 1513 1515 1515 1516 1517 1518 1519 1520 1520 1521 1522 1523 1525 1526 1527 1528 1529 1531 1532 1533 1534 1535 1537 1538 1539
1524 1525 1525 1509 1498 1495 1501 1509 1501 1500 1501 1502 1503 1510 1509 1508 1508 1509 1511 1512 1513 1514 1514 1515 1516 1517 1517 1517 1518 1519 1520 1522 1523 1525 1526 1527 1528 1530 1531 1532 1533 1534 1535 1536
1521 1522 1514 1500 1495 1495 1511 1509 1499 1498 1498 1499 1501 1503 1504 1505 1506 1508 1509 1510 1511 1511 1512 1513 1514 1514 1514 1515 1515 1517 1518 1520 1521 1522 1523 1524 1526 1527 1529 1530 1531 1532 1533 1534
1517 1521 1515 1494 1494 1498 1499 1495 1495 1496 1496 1497 1499 1500 1501 1502 1503 1505 1506 1507 1508 1509 1510 1510 1511 1511 1511 1512 1513 1514 1515 1517 1518 1519 1521 1522 1523 1525 1526 1527 1528 1529 1530 1531
1504 1504 1495 1492 1492 1493 1493 1494 1494 1494 1495 1496 1497 1498 1499 1500 1501 1502 1504 1505 1506 1506 1507 1508 1508 1509 1509 1510 1511 1512 1513 1514 1515 1517 1518 1519 1520 1522 1523 1524 1525 1526 1527 1528
1497 1495 1492 1491 1491 1491 1492 1492 1493 1493 1494 1495 1495 1496 1497 1498 1499 1500 1501 1502 1503 1504 1504 1505 1506 1507 1507 1508 1509 1509 1510 1511 1513 1514 1515 1516 1517 1519 1520 1521 1522 1523 1524 1525
1495 1492 1491 1490 1490 1491 1491 1491 1491 1492 1492 1493 1493 1494 1495 1496 1497 1498 1499 1500 1501 1501 1502 1502 1503 1504 1505 1506 1506 1507 1507 1508 1510 1511 1512 1513 1514 1516 1517 1518 1519 1520 1521 1522
1492 1489 1490 1490 1490 1490 1489 1489 1489 1490 1490 1491 1491 1492 1493 1493 1494 1495 1496 1497 1498 1499 1499 1500 1501 1501 1502 1503 1504 1504 1505 1506 1507 1508 1509 1510 1511 1513 1514 1515 1516 1517 1518 1519
1485 1485 1486 1486 1487 1488 1487 1487 1487 1487 1488 1488 1489 1490 1490 1490 1491 1493 1493 1494 1495 1496 1497 1497 1498 1499 1499 1500 1501 1501 1502 1503 1504 1505 1506 1507 1508 1509 1510 1512 1513 1514 1514 1515
1482 1483 1483 1483 1484 1485 1485 1485 1485 1485 1485 1486 1486 1487 1487 1488 1489 1490 1490 1491 1492 1493 1494 1494 1495 1495 1497 1497 1498 1498 1499 1500 1501 1502 1503 1504 1505 1506 1507 1508 1508 1509 1511 1511
1479 1480 1480 1481 1482 1482 1482 1482 1482 1482 1483 1483 1484 1485 1485 1485 1486 1486 1487 1488 1489 1489 1490 1490 1491 1492 1493 1494 1494 1495 1496 1496 1497 1498 1499 1500 1502 1502 1503 1504 1505 1505 1506 1507
1476 1477 1477 1478 1478 1479 1479 1479 1479 1480 1480 1481 1482 1482 1483 1483 1483 1483 1484 1484 1485 1485 1485 1486 1487 1488 1489 1490 1490 1491 1492 1492 1493 1494 1495 1497 1498 1498 1499 1500 1501 1501 1502 1503
1473 1473 1474 1475 1475 1476 1476 1477 1476 1477 1478 1478 1479 1479 1480 1480 1479 1479 1480 1480 1481 1481 1481 1482 1483 1484 1485 1486 1486 1487 1487 1488 1489 1490 1491 1492 1493 1494 1495 1496 1496 1497 1498 1499
1469 1470 1471 1472 1472 1473 1473 1474 1474 1474 1475 1475 1476 1476 1476 1476 1476 1475 1476 1476 1476 1477 1478 1478 1479 1479 1480 1481 1482 1482 1483 1484 1484 1485 1486 1487 1488 1490 1491 1491 1492 1493 1493 1494
1465 1466 1467 1468 1469 1469 1470 1471 1471 1471 1472 1472 1472 1472 1472 1472 1472 1472 1472 1472 1472 1472 1473 1474 1474 1475 1475 1476 1477 1477 1478 1479 1480 1480 1481 1482 1484 1485 1486 1486 1487 1488 1488 1489
1462 1463 1464 1464 1465 1466 1466 1467 1468 1468 1468 1468 1469 1468 1468 1468 1468 1468 1468 1468 1468 1468 1468 1469 1469 1470 1470 1470 1471 1472 1473 1473 1474 1475 1476 1478 1479 1479 1480 1481 1482 1483 1483 1483
1458 1460 1460 1461 1461 1462 1463 1463 1463 1463 1464 1464 1464 1464 1464 1464 1464 1464 1463 1463 1463 1464 1464 1464 1465 1465 1465 1466 1466 1467 1467 1468 1469 1470 1471 1472 1473 1474 1474 1475 1476 1477 1477 1477
1455 1456 1457 1457 1458 1458 1459 1459 1459 1459 1460 1460 1460 1460 1460 1460 1460 1460 1460 1460 1459 1460 1460 1460 1460 1460 1460 1461 1461 1461 1462 1463 1463 1464 1465 1466 1467 1468 1469 1469 1470 1471 1471 1472
1452 1453 1453 1454 1454 1454 1455 1455 1456 1456 1456 1456 1456 1456 1456 1456 1456 1456 1455 1456 1456 1456 1455 1455 1455 1455 1455 1456 1456 1456 1457 1457 1458 1459 1460 1461 1461 1462 1463 1463 1464 1465 1465 1466
1449 1449 1450 1450 1451 1451 1451 1452 1452 1453 1453 1453 1453 1453 1453 1452 1452 1452 1452 1452 1451 1451 1450 1450 1450 1450 1450 1450 1450 1451 1451 1452 1452 1453 1454 1455 1455 1456 1457 1457 1458 1458 1459 1459
1445 1445 1446 1446 1447 1447 1448 1448 1449 1449 1449 1449 1449 1449 1449 1449 1449 1448 1448 1447 1447 1446 1445 1445 1445 1445 1445 1445 1445 1445 1446 1446 1447 1448 1448 1449 1449 1450 1451 1451 1452 1452 1453 1453
1442 1442 1442 1442 1443 1443 1444 1444 1444 1445 1445 1445 1445 1445 1445 1445 1445 1444 1443 1443 1442 1441 1441 1440 1440 1440 1439 1440 1440 1440 1440 1441 1442 1442 1442 1443 1443 1444 1444 1445 1445 1446 1446 1446
1438 1438 1438 1439 1439 1440 1440 1440 1441 1441 1441 1441 1441 1441 1441 1441 1440 1440 1439 1438 1438 1437 1436 1436 1435 1435 1435 1435 1435 1435 1435 1436 1436 1437 1437 1437 1437 1437 1438 1438 1439 1439 1440 1440